Madison, WI

4:38 AM CDT on September 16, 2019 (GMT -0500)
Dane County Regional-Truax

Weather History for KMSN - July, 2019

Change the Weather History Date:

Monday, July 29, 2019

  Actual Average Record
Temperature  
Mean Temperature 76 °F 71 °F  
Max Temperature 83 °F 81 °F 101 °F (1916)
Min Temperature 68 °F 61 °F 43 °F (1965)
Degree Days  
Heating Degree Days 0 0  
Month to date heating degree days 0 0  
Since 1 June heating degree days 42 60  
Since 1 July heating degree days 0 0  
Cooling Degree Days 11 6  
Month to date cooling degree days 318 196  
Year to date cooling degree days 436 346  
Since 1 June cooling degree days 416 316  
Growing Degree Days 26 (Base 50)    
Moisture  
Dew Point 64 °F    
Average Humidity 69    
Maximum Humidity 90    
Minimum Humidity 47    
Precipitation  
Precipitation 0.20 in 0.13 in 2.16 in (1959)
Month to date precipitation 5.77 3.93  
Year to date precipitation 26.74 20.30  
Snow  
Snow 0.00 in 0.00 in 0.00 in (2018)
Month to date snowfall 0.0 0.0  
Since 1 June snowfall 0.0 0.0  
Since 1 July snowfall 0.0 0.0  
Snow Depth 0.00 in    
Sea Level Pressure  
Sea Level Pressure 29.85 in    
Wind  
Wind Speed 6 mph (WNW)    
Max Wind Speed 14 mph    
Max Gust Speed 23 mph    
Visibility 10 miles    
Events      
T = Trace of Precipitation, MM = Missing Value Source: NWS Daily Summary

Daily Weather History Graph

Daily Weather History Graph

Search for Another Location

Airport or City:

Astronomy

Jul. 29, 2019 Rise Set
Actual Time 5:44 AM CDT 8:22 PM CDT
Civil Twilight 5:11 AM CDT 8:55 PM CDT
Nautical Twilight 4:30 AM CDT 9:35 PM CDT
Astronomical Twilight 3:43 AM CDT 10:22 PM CDT
Moon 2:54 AM CDT (7/29) 6:28 PM CDT (7/29)
Length of Visible Light 15h 43m
Length of Day
14h 38m
Waning Crescent, 8% of the Moon is Illuminated
Jul 29
Waning Crescent
Jul 31
New
Aug 7
First Quarter
Aug 15
Full
Aug 23
Last Quarter

Hourly Weather History & Observations

Time (CDT) Temp. Heat Index Dew Point Humidity Pressure Visibility Wind Dir Wind Speed Gust Speed Precip Events Conditions
7:39 AM 71.1 °F - 68.0 °F 90% 29.83 in 10.0 mi Variable 4.6 mph - N/A   Overcast
7:53 AM 71.1 °F - 68.0 °F 90% 29.81 in 10.0 mi Calm Calm - N/A   Mostly Cloudy
8:42 AM 73.0 °F - 68.0 °F 84% 29.84 in 10.0 mi WNW 8.1 mph - N/A   Mostly Cloudy
8:53 AM 73.9 °F - 68.0 °F 82% 29.82 in 10.0 mi West 9.2 mph - N/A   Mostly Cloudy
9:53 AM 75.9 °F - 68.0 °F 76% 29.83 in 10.0 mi Variable 5.8 mph - N/A   Mostly Cloudy
10:53 AM 78.1 °F - 66.9 °F 68% 29.83 in 10.0 mi WNW 8.1 mph - N/A   Mostly Cloudy
11:03 AM 79.0 °F - 66.0 °F 64% 29.84 in 10.0 mi NW 9.2 mph - N/A   Mostly Cloudy
11:53 AM 80.1 °F 81.2 °F 62.1 °F 54% 29.83 in 10.0 mi WNW 9.2 mph - N/A   Scattered Clouds
12:53 PM 80.1 °F 81.5 °F 63.0 °F 56% 29.83 in 10.0 mi WNW 8.1 mph - N/A   Scattered Clouds
1:53 PM 82.0 °F 83.0 °F 62.1 °F 51% 29.83 in 10.0 mi NW 5.8 mph - N/A   Scattered Clouds
2:53 PM 82.0 °F 82.4 °F 60.1 °F 47% 29.83 in 10.0 mi WNW 9.2 mph - N/A   Mostly Cloudy
3:53 PM 82.0 °F 82.4 °F 60.1 °F 47% 29.83 in 10.0 mi NW 10.4 mph 17.3 mph N/A   Mostly Cloudy
4:53 PM 82.9 °F 83.3 °F 61.0 °F 47% 29.83 in 10.0 mi NW 10.4 mph 17.3 mph N/A   Mostly Cloudy
5:53 PM 82.0 °F 83.0 °F 62.1 °F 51% 29.84 in 10.0 mi Variable 6.9 mph - N/A   Mostly Cloudy
6:53 PM 80.1 °F 81.1 °F 61.0 °F 52% 29.85 in 10.0 mi NW 5.8 mph - N/A   Partly Cloudy
7:53 PM 77.0 °F - 61.0 °F 58% 29.86 in 10.0 mi Calm Calm - N/A   Partly Cloudy
8:53 PM 72.0 °F - 62.1 °F 71% 29.88 in 10.0 mi WNW 3.5 mph - N/A   Partly Cloudy
9:53 PM 72.0 °F - 63.0 °F 73% 29.91 in 10.0 mi Calm Calm - N/A   Scattered Clouds
10:53 PM 70.0 °F - 63.0 °F 78% 29.92 in 10.0 mi NW 4.6 mph - N/A   Mostly Cloudy
11:53 PM 69.1 °F - 62.1 °F 78% 29.94 in 10.0 mi NNW 4.6 mph - N/A   Scattered Clouds